Weather History for Millington, TN

Change the Weather History Date:

Tuesday, February 19, 2013

  Actual Average Record
Temperature  
Mean Temperature 40 °F -  
Max Temperature 48 °F 53 °F 113 °F (2003)
Min Temperature 33 °F 36 °F 8 °F (2006)
Degree Days  
Heating Degree Days 24    
Moisture  
Dew Point 29 °F    
Average Humidity 63    
Maximum Humidity 81    
Minimum Humidity 43    
Precipitation  
Precipitation 0.00 in - - ()
Sea Level Pressure  
Sea Level Pressure 30.16 in    
Wind  
Wind Speed 11 mph (WNW)    
Max Wind Speed 17 mph    
Max Gust Speed -    
Visibility 10 miles    
Events      
Averages and records for this station are not official NWS values.
T = Trace of Precipitation, MM = Missing Value Source: NWS Daily Summary

Daily Weather History Graph

Daily Weather History Graph

Search for Another Location

Airport:

Trip Planner

Search our weather history database for the weather conditions in past years. The results will help you decide how hot, cold, wet, or windy it might be!

Date:

Astronomy

Feb. 19, 2013 Rise Set
Actual Time 6:41 AM CST 5:45 PM CST
Civil Twilight 6:15 AM CST 6:11 PM CST
Nautical Twilight 5:45 AM CST 6:41 PM CST
Astronomical Twilight 5:16 AM CST 7:10 PM CST
Moon 12:24 PM CST (2/19) 2:06 AM CST (2/19)
Length of Visible Light 11h 56m
Length of Day
11h 04m
Waxing Gibbous, 67% of the Moon is Illuminated
Feb 19
Waxing Gibbous
Feb 25
Full
Mar 4
Last Quarter
Mar 11
New
Mar 19
First Quarter

Hourly Weather History & Observations

Time (CST) Temp. Windchill Dew Point Humidity Pressure Visibility Wind Dir Wind Speed Gust Speed Precip Events Conditions
12:55 AM 44.6 °F 38.4 °F 37.4 °F 76% 29.99 in 10.0 mi WNW 12.7 mph - N/A   Partly Cloudy
1:55 AM 42.8 °F 36.6 °F 37.4 °F 81% 30.01 in 10.0 mi WNW 11.5 mph - N/A   Partly Cloudy
2:15 AM 42.8 °F 36.6 °F 37.4 °F 81% 30.02 in 10.0 mi WNW 11.5 mph - N/A   Partly Cloudy
2:35 AM 42.8 °F 36.6 °F 37.4 °F 81% 30.03 in 10.0 mi WNW 11.5 mph - N/A   Clear
2:55 AM 42.8 °F 36.2 °F 35.6 °F 76% 30.04 in 10.0 mi WNW 12.7 mph - N/A   Scattered Clouds
3:15 AM 42.8 °F 36.2 °F 35.6 °F 76% 30.04 in 10.0 mi WNW 12.7 mph - N/A   Mostly Cloudy
3:35 AM 41.0 °F 32.5 °F 33.8 °F 76% 30.05 in 10.0 mi WNW 17.3 mph - N/A   Scattered Clouds
3:55 AM 39.2 °F 30.8 °F 32.0 °F 75% 30.06 in 10.0 mi WNW 15.0 mph - N/A   Partly Cloudy
4:15 AM 37.4 °F 29.3 °F 30.2 °F 75% 30.08 in 10.0 mi WNW 12.7 mph - N/A   Clear
4:35 AM 37.4 °F 29.8 °F 30.2 °F 75% 30.09 in 10.0 mi WNW 11.5 mph - N/A   Clear
4:55 AM 37.4 °F 30.8 °F 30.2 °F 75% 30.10 in 10.0 mi WNW 9.2 mph - N/A   Clear
5:55 AM 35.6 °F 27.5 °F 28.4 °F 75% 30.13 in 10.0 mi WNW 11.5 mph - N/A   Clear
6:55 AM 33.8 °F 27.0 °F 28.4 °F 81% 30.16 in 10.0 mi WNW 8.1 mph - N/A   Clear
7:55 AM 35.6 °F 28.6 °F 28.4 °F 75% 30.19 in 10.0 mi WNW 9.2 mph - N/A   Clear
8:55 AM 37.4 °F 30.8 °F 26.6 °F 65% 30.22 in 10.0 mi WNW 9.2 mph - N/A   Clear
9:55 AM 39.2 °F 33.0 °F 24.8 °F 56% 30.24 in 10.0 mi WNW 9.2 mph - N/A   Partly Cloudy
10:55 AM 44.6 °F 39.2 °F 26.6 °F 49% 30.24 in 10.0 mi West 10.4 mph - N/A   Partly Cloudy
11:55 AM 46.4 °F 40.7 °F 28.4 °F 50% 30.24 in 10.0 mi West 12.7 mph - N/A   Partly Cloudy
12:55 PM 46.4 °F 40.4 °F 28.4 °F 50% 30.23 in 10.0 mi West 13.8 mph - N/A   Partly Cloudy
1:55 PM 48.2 °F - 26.6 °F 43% 30.23 in 10.0 mi WNW 17.3 mph - N/A   Clear
2:55 PM 48.2 °F - 26.6 °F 43% 30.23 in 10.0 mi West 15.0 mph - N/A   Partly Cloudy
3:55 PM 48.2 °F - 26.6 °F 43% 30.24 in 10.0 mi West 10.4 mph - N/A   Partly Cloudy
4:55 PM 46.4 °F 41.1 °F 24.8 °F 43% 30.24 in 10.0 mi West 11.5 mph - N/A   Clear
6:55 PM 41.0 °F - 24.8 °F 53% 30.23 in 10.0 mi Calm Calm - N/A   Clear
7:55 PM 41.0 °F 38.0 °F 24.8 °F 53% 30.26 in 10.0 mi West 4.6 mph - N/A   Clear
8:55 PM 39.2 °F 37.0 °F 23.0 °F 52% 30.26 in 10.0 mi NW 3.5 mph - N/A   Clear
9:55 PM 37.4 °F 33.8 °F 21.2 °F 52% 30.27 in 10.0 mi NW 4.6 mph - N/A   Clear
10:55 PM 37.4 °F 32.8 °F 19.4 °F 48% 30.27 in 10.0 mi North 5.8 mph - N/A   Clear